DMSP 5D-2 F13 DEB, 42266

Orbit data source: Space-Track

DMSP 5D-2 F13 DEB, 42266 is space debris in SSO originally from a launch on Fri, 24 Mar 1995 UTC launched from the Air Force Western Test Range (AFWTR). Debris objects in space refer to the collection of defunct objects orbiting the Earth. Examples of debris include non-operational satellites, rocket bodies, and fragments generated from explosions, collisions, or faulty payload assembly.

Loading next visibility...
Identifier
42266, 1995-015GG
Orbit
SSO
Country
Flag of USUS
Related business
Manufacturer
Unknown
Mission
Spacecraft
Bus & Motor
Unknown
Mass
Unknown
Launch date (UTC)
1995-03-24 (31 years ago)
Launch vehicle
Unknown
Launch site
Air Force Western Test Range (AFWTR)
Object type
Payload
Rocket body
Debris
Shape & HBR
Unknown shape, 0.1 m
Radar Cross Section
Small (<0.1 m²)

Expand to show TLE details & history
Last TLE update: 21 hours ago

TLE from 21 hours ago
0 DMSP 5D-2 F13 DEB
1 42266U 95015GG  26118.40486408  .00005942  00000-0  16247-2 0  9994
2 42266  98.5868 166.2521 0023556  69.1257 291.2454 14.47436684566427
Epoch: 2026-04-28T09:43Z
TLE epoch observation values (Epoch: 2026-04-28T09:43:00.256Z)
Latitude
-0.00004°
Longitude
164.12038°
Altitude
730.951 km
Speed
7.493 km/s
True Right ascension
11h 05m 00s
True Declination
0° 00' 00"
Sunlit
Object was in full shadow at epoch
Visualization orbit readout
Latitude
Unknown
Longitude
Unknown
Altitude
Unknown
Speed
Unknown
Apparent Right ascension
Unknown
Apparent Declination
Unknown
Sunlit
N/A
Visualization observer readout
Local Sidereal Time
14:02:24
Azimuth
Unknown
Elevation
Unknown
Doppler factor
Unknown
Orbital elements
Apogee altitude
747.896 km
Perigee altitude
714.402 km
Semi-major axis
7,109.286 km
Eccentricity
0.00236
Inclination
98.5868°
RAAN
166.2521°
Arg. of periapsis
69.1257°
True anomaly
290.99355°
Mean anomaly
291.2454°
Eccentric anomaly
291.1195°
Mean motion
3.6208 °/min
Orbital period
99.43 mins
BSTAR
0.0016247
Loading maneuver chart data...
Computing Atmospheric mass density...

Documentation

Showing up to 5 results
|